QPF
0.13 0.13 0.12 0.12 0.12 0.12 0.13 0.15 0.17 0.16 0.13 0.10 0.09 0.08 0.06 0.05 0.04 0.03 0.02 0.02 0.01 0.01 0.00 0.00 0.00 0.00 0.00 0.00 0.00 0.00 0.00 0.00 0.00 0.00 0.00 0.01 0.01 0.01
0.13 0.13 0.13 0.13 0.13 0.13 0.15 0.18 0.20 0.22 0.21 0.16 0.13 0.12 0.12 0.10 0.08 0.05 0.03 0.02 0.01 0.01 0.01 0.00 0.00 0.00 0.00 0.00 0.00 0.00 0.00 0.00 0.00 0.00 0.01 0.01 0.01 0.01
0.10 0.11 0.12 0.12 0.13 0.14 0.16 0.18 0.21 0.24 0.27 0.25 0.22 0.21 0.18 0.14 0.10 0.06 0.03 0.02 0.01 0.01 0.01 0.00 0.00 0.00 0.00 0.00 0.00 0.00 0.00 0.00 0.00 0.00 0.01 0.01 0.01 0.01
0.09 0.09 0.10 0.10 0.12 0.14 0.16 0.19 0.21 0.23 0.25 0.26 0.23 0.19 0.15 0.11 0.07 0.04 0.02 0.01 0.01 0.00 0.00 0.00 0.00 0.00 0.00 0.00 0.00 0.00 0.00 0.00 0.00 0.00 0.00 0.00 0.01 0.01
0.06 0.07 0.08 0.09 0.11 0.12 0.14 0.16 0.17 0.18 0.18 0.18 0.16 0.13 0.10 0.07 0.05 0.03 0.02 0.01 0.00 0.00 0.00 0.00 0.00 0.00 0.00 0.00 0.00 0.00 0.00 0.00 0.00 0.00 0.00 0.00 0.00 0.00
0.06 0.07 0.08 0.09 0.11 0.12 0.14 0.14 0.14 0.14 0.13 0.12 0.11 0.08 0.06 0.05 0.03 0.02 0.01 0.01 0.00 0.00 0.00 0.00 0.00 0.00 0.00 0.00 0.00 0.00 0.00 0.00 0.00 0.00 0.00 0.00 0.00 0.00
0.08 0.10 0.12 0.15 0.15 0.14 0.13 0.12 0.11 0.10 0.09 0.07 0.06 0.05 0.04 0.03 0.02 0.01 0.00 0.00 0.00 0.00 0.00 0.00 0.00 0.00 0.00 0.00 0.00 0.00 0.00 0.00 0.00 0.00 0.00 0.00 0.00 0.00
0.10 0.13 0.15 0.17 0.15 0.14 0.12 0.09 0.08 0.07 0.06 0.05 0.04 0.03 0.02 0.01 0.00 0.00 0.00 0.00 0.00 0.00 0.00 0.00 0.00 0.00 0.00 0.00 0.00 0.00 0.00 0.00 0.00 0.00 0.00 0.00 0.00 0.00
0.09 0.10 0.09 0.09 0.09 0.07 0.07 0.06 0.06 0.05 0.03 0.02 0.01 0.01 0.00 0.00 0.00 0.00 0.00 0.00 0.00 0.00 0.00 0.00 0.00 0.00 0.00 0.00 0.00 0.00 0.00 0.00 0.00 0.00 0.00 0.00 0.00 0.00
0.08 0.07 0.05 0.04 0.03 0.02 0.02 0.01 0.01 0.01 0.01 0.00 0.00 0.00 0.00 0.00 0.00 0.00 0.00 0.00 0.00 0.00 0.00 0.00 0.00 0.00 0.00 0.00 0.00 0.00 0.00 0.00 0.00 0.00 0.00 0.00 0.00 0.00
0.04 0.03 0.02 0.01 0.01 0.01 0.01 0.00 0.00 0.00 0.00 0.00 0.00 0.00 0.00 0.00 0.00 0.00 0.00 0.00 0.00 0.00 0.00 0.00 0.00 0.00 0.00 0.00 0.00 0.00 0.00 0.00 0.00 0.00 0.00 0.00 0.00 0.00
0.01 0.01 0.00 0.00 0.00 0.00 0.00 0.00 0.00 0.00 0.00 0.00 0.00 0.00 0.00 0.00 0.00 0.00 0.00 0.00 0.00 0.00 0.00 0.00 0.00 0.00 0.00 0.00 0.00 0.00 0.00 0.00 0.00 0.00 0.00 0.00 0.00 0.00
0.00 0.00 0.00 0.00 0.00 0.00 0.00 0.00 0.00 0.00 0.00 0.00 0.00 0.00 0.00 0.00 0.00 0.00 0.00 0.00 0.00 0.00 0.00 0.00 0.00 0.00 0.01 0.00 0.00 0.00 0.00 0.00 0.00 0.00 0.00 0.00 0.00 0.00
0.00 0.00 0.00 0.00 0.00 0.00 0.00 0.00 0.00 0.00 0.00 0.00 0.00 0.00 0.00 0.00 0.00 0.00 0.00 0.00 0.00 0.00 0.00 0.00 0.01 0.01 0.01 0.01 0.00 0.00 0.00 0.00 0.00 0.00 0.00 0.00 0.00 0.00
0.00 0.00 0.00 0.00 0.00 0.00 0.00 0.00 0.00 0.00 0.00 0.00 0.00 0.00 0.00 0.00 0.00 0.00 0.00 0.00 0.00 0.00 0.00 0.00 0.01 0.01 0.02 0.02 0.01 0.00 0.00 0.00 0.00 0.00 0.00 0.00 0.00 0.00
0.00 0.00 0.00 0.00 0.00 0.00 0.00 0.00 0.00 0.00 0.00 0.00 0.00 0.00 0.00 0.00 0.00 0.00 0.00 0.00 0.00 0.00 0.00 0.00 0.00 0.01 0.02 0.02 0.02 0.01 0.00 0.00 0.00 0.00 0.00 0.00 0.00 0.00
0.00 0.00 0.00 0.00 0.00 0.00 0.00 0.00 0.00 0.00 0.00 0.00 0.00 0.00 0.00 0.00 0.00 0.00 0.00 0.00 0.00 0.00 0.00 0.00 0.00 0.00 0.01 0.02 0.02 0.01 0.00 0.00 0.00 0.00 0.00 0.01 0.00 0.00
0.00 0.00 0.00 0.00 0.00 0.00 0.00 0.00 0.00 0.00 0.00 0.00 0.00 0.00 0.00 0.00 0.00 0.00 0.00 0.00 0.01 0.00 0.00 0.00 0.00 0.01 0.01 0.01 0.01 0.00 0.00 0.00 0.00 0.00 0.01 0.02 0.01 0.00
0.00 0.00 0.00 0.00 0.00 0.00 0.00 0.00 0.00 0.00 0.00 0.00 0.00 0.00 0.00 0.01 0.01 0.01 0.00 0.01 0.01 0.00 0.00 0.00 0.01 0.02 0.03 0.01 0.00 0.00 0.00 0.00 0.00 0.01 0.01 0.01 0.01 0.00
0.00 0.00 0.00 0.00 0.00 0.00 0.00 0.00 0.00 0.00 0.00 0.00 0.00 0.00 0.01 0.01 0.01 0.01 0.01 0.01 0.01 0.01 0.01 0.00 0.01 0.01 0.03 0.03 0.02 0.00 0.00 0.00 0.01 0.01 0.01 0.00 0.00 0.00
0.00 0.00 0.00 0.00 0.00 0.00 0.00 0.00 0.00 0.00 0.00 0.00 0.00 0.00 0.01 0.01 0.01 0.01 0.01 0.01 0.01 0.01 0.01 0.00 0.00 0.00 0.02 0.05 0.04 0.01 0.00 0.00 0.00 0.01 0.02 0.03 0.03 0.01
0.00 0.00 0.00 0.00 0.00 0.00 0.00 0.00 0.00 0.00 0.00 0.00 0.00 0.00 0.01 0.01 0.01 0.01 0.01 0.01 0.01 0.01 0.01 0.00 0.00 0.01 0.02 0.05 0.03 0.01 0.00 0.00 0.00 0.00 0.01 0.03 0.07 0.06
0.00 0.00 0.00 0.00 0.00 0.00 0.00 0.00 0.00 0.00 0.00 0.00 0.00 0.00 0.01 0.01 0.01 0.01 0.01 0.01 0.01 0.01 0.01 0.01 0.01 0.01 0.01 0.02 0.03 0.02 0.01 0.00 0.00 0.00 0.00 0.00 0.00 0.01
MSLP
1013.88 1014.28 1014.71 1015.17 1015.64 1016.12 1016.60 1017.08 1017.57 1018.07 1018.57 1019.08 1019.59 1020.08 1020.53 1020.94 1021.30 1021.59 1021.81 1021.98 1022.10 1022.18 1022.24 1022.28 1022.30 1022.31 1022.31 1022.30 1022.26 1022.21 1022.14 1022.06 1021.97 1021.87 1021.75 1021.63 1021.50 1021.36
1013.70 1014.07 1014.48 1014.92 1015.39 1015.87 1016.37 1016.88 1017.40 1017.94 1018.49 1019.03 1019.57 1020.08 1020.54 1020.95 1021.29 1021.57 1021.77 1021.92 1022.00 1022.05 1022.07 1022.07 1022.05 1022.03 1022.00 1021.95 1021.90 1021.84 1021.76 1021.68 1021.59 1021.49 1021.38 1021.24 1021.10 1020.94
1013.82 1014.15 1014.52 1014.93 1015.37 1015.84 1016.33 1016.83 1017.36 1017.90 1018.45 1019.00 1019.54 1020.05 1020.51 1020.91 1021.24 1021.50 1021.68 1021.80 1021.85 1021.86 1021.84 1021.79 1021.72 1021.64 1021.56 1021.48 1021.40 1021.33 1021.25 1021.17 1021.09 1021.00 1020.90 1020.78 1020.63 1020.46
1014.22 1014.52 1014.85 1015.22 1015.61 1016.04 1016.48 1016.95 1017.44 1017.96 1018.48 1019.00 1019.51 1019.99 1020.43 1020.80 1021.11 1021.35 1021.51 1021.60 1021.62 1021.59 1021.52 1021.42 1021.29 1021.16 1021.03 1020.91 1020.79 1020.69 1020.61 1020.54 1020.47 1020.40 1020.32 1020.22 1020.08 1019.92
1014.89 1015.14 1015.43 1015.74 1016.08 1016.45 1016.83 1017.24 1017.66 1018.10 1018.56 1019.02 1019.46 1019.89 1020.28 1020.62 1020.90 1021.11 1021.25 1021.31 1021.31 1021.25 1021.14 1020.99 1020.81 1020.62 1020.43 1020.25 1020.09 1019.96 1019.87 1019.80 1019.75 1019.70 1019.65 1019.57 1019.46 1019.32
1015.75 1015.96 1016.21 1016.47 1016.74 1017.03 1017.34 1017.65 1017.98 1018.33 1018.69 1019.05 1019.41 1019.76 1020.09 1020.38 1020.62 1020.80 1020.92 1020.98 1020.96 1020.88 1020.73 1020.54 1020.31 1020.06 1019.81 1019.57 1019.37 1019.20 1019.08 1019.00 1018.96 1018.92 1018.90 1018.85 1018.77 1018.65
1016.72 1016.90 1017.09 1017.30 1017.51 1017.72 1017.93 1018.14 1018.37 1018.60 1018.85 1019.10 1019.36 1019.62 1019.87 1020.11 1020.31 1020.47 1020.58 1020.63 1020.61 1020.52 1020.36 1020.14 1019.87 1019.57 1019.26 1018.96 1018.70 1018.48 1018.32 1018.21 1018.15 1018.12 1018.11 1018.08 1018.03 1017.93
1017.70 1017.84 1017.99 1018.13 1018.27 1018.40 1018.53 1018.64 1018.76 1018.88 1019.01 1019.15 1019.31 1019.48 1019.66 1019.84 1020.01 1020.16 1020.27 1020.32 1020.32 1020.23 1020.07 1019.84 1019.54 1019.19 1018.83 1018.47 1018.14 1017.86 1017.64 1017.49 1017.39 1017.34 1017.32 1017.29 1017.25 1017.17
1018.57 1018.68 1018.78 1018.87 1018.95 1019.01 1019.05 1019.08 1019.10 1019.12 1019.15 1019.19 1019.26 1019.35 1019.47 1019.60 1019.75 1019.89 1020.01 1020.09 1020.10 1020.04 1019.89 1019.65 1019.34 1018.97 1018.56 1018.14 1017.74 1017.38 1017.09 1016.87 1016.72 1016.62 1016.56 1016.52 1016.46 1016.39
1019.26 1019.32 1019.38 1019.43 1019.46 1019.46 1019.44 1019.40 1019.35 1019.29 1019.24 1019.21 1019.21 1019.24 1019.32 1019.42 1019.55 1019.70 1019.83 1019.93 1019.97 1019.93 1019.80 1019.57 1019.26 1018.86 1018.42 1017.94 1017.48 1017.05 1016.68 1016.38 1016.15 1015.99 1015.87 1015.78 1015.70 1015.61
1019.72 1019.74 1019.76 1019.77 1019.76 1019.72 1019.66 1019.58 1019.48 1019.38 1019.29 1019.21 1019.16 1019.16 1019.20 1019.29 1019.41 1019.56 1019.70 1019.82 1019.88 1019.86 1019.75 1019.54 1019.23 1018.82 1018.35 1017.84 1017.32 1016.82 1016.38 1016.00 1015.69 1015.44 1015.26 1015.11 1014.98 1014.85
1019.96 1019.95 1019.93 1019.91 1019.87 1019.81 1019.73 1019.63 1019.52 1019.40 1019.29 1019.19 1019.13 1019.10 1019.13 1019.20 1019.31 1019.44 1019.58 1019.70 1019.77 1019.77 1019.67 1019.46 1019.16 1018.75 1018.27 1017.73 1017.18 1016.63 1016.13 1015.68 1015.29 1014.97 1014.71 1014.50 1014.31 1014.14
1020.03 1019.99 1019.95 1019.90 1019.84 1019.77 1019.69 1019.59 1019.48 1019.37 1019.26 1019.17 1019.10 1019.06 1019.07 1019.12 1019.21 1019.32 1019.44 1019.53 1019.59 1019.58 1019.47 1019.27 1018.96 1018.56 1018.08 1017.54 1016.97 1016.40 1015.86 1015.36 1014.92 1014.53 1014.21 1013.93 1013.68 1013.45
1020.01 1019.95 1019.88 1019.82 1019.75 1019.68 1019.61 1019.52 1019.43 1019.33 1019.24 1019.15 1019.08 1019.04 1019.03 1019.05 1019.10 1019.16 1019.23 1019.28 1019.29 1019.25 1019.12 1018.90 1018.59 1018.20 1017.72 1017.20 1016.64 1016.07 1015.51 1014.99 1014.51 1014.08 1013.70 1013.36 1013.05 1012.76
1019.98 1019.89 1019.82 1019.74 1019.68 1019.61 1019.55 1019.48 1019.40 1019.32 1019.24 1019.16 1019.09 1019.03 1018.99 1018.96 1018.96 1018.96 1018.95 1018.93 1018.88 1018.77 1018.60 1018.36 1018.03 1017.64 1017.18 1016.67 1016.13 1015.58 1015.03 1014.51 1014.01 1013.55 1013.13 1012.73 1012.37 1012.03
1019.99 1019.89 1019.81 1019.73 1019.66 1019.60 1019.54 1019.48 1019.41 1019.34 1019.27 1019.18 1019.10 1019.01 1018.93 1018.86 1018.78 1018.70 1018.62 1018.51 1018.37 1018.18 1017.95 1017.66 1017.31 1016.90 1016.45 1015.96 1015.45 1014.92 1014.40 1013.88 1013.39 1012.91 1012.45 1012.01 1011.59 1011.19
1020.05 1019.96 1019.87 1019.79 1019.72 1019.66 1019.60 1019.54 1019.47 1019.39 1019.31 1019.21 1019.11 1018.99 1018.86 1018.73 1018.58 1018.42 1018.24 1018.04 1017.80 1017.53 1017.22 1016.88 1016.48 1016.06 1015.60 1015.12 1014.62 1014.11 1013.60 1013.10 1012.60 1012.10 1011.61 1011.13 1010.66 1010.20
1020.16 1020.08 1019.99 1019.91 1019.84 1019.76 1019.69 1019.62 1019.53 1019.44 1019.34 1019.22 1019.08 1018.93 1018.76 1018.56 1018.35 1018.11 1017.85 1017.56 1017.23 1016.88 1016.49 1016.07 1015.63 1015.16 1014.68 1014.18 1013.68 1013.17 1012.66 1012.15 1011.63 1011.11 1010.59 1010.06 1009.54 1009.03
1020.28 1020.20 1020.11 1020.03 1019.95 1019.86 1019.77 1019.67 1019.56 1019.44 1019.31 1019.16 1018.99 1018.80 1018.59 1018.35 1018.08 1017.78 1017.45 1017.08 1016.68 1016.25 1015.78 1015.29 1014.79 1014.26 1013.73 1013.20 1012.67 1012.13 1011.60 1011.05 1010.51 1009.95 1009.39 1008.82 1008.25 1007.69
1020.33 1020.26 1020.18 1020.10 1020.00 1019.89 1019.77 1019.64 1019.50 1019.34 1019.17 1018.99 1018.79 1018.57 1018.32 1018.05 1017.75 1017.41 1017.03 1016.60 1016.14 1015.64 1015.11 1014.55 1013.97 1013.38 1012.79 1012.19 1011.60 1011.02 1010.43 1009.84 1009.25 1008.65 1008.04 1007.43 1006.81 1006.22
1020.29 1020.22 1020.15 1020.05 1019.94 1019.80 1019.65 1019.48 1019.30 1019.10 1018.89 1018.67 1018.44 1018.19 1017.93 1017.63 1017.31 1016.94 1016.53 1016.07 1015.56 1015.01 1014.42 1013.79 1013.15 1012.49 1011.82 1011.16 1010.49 1009.84 1009.19 1008.54 1007.89 1007.24 1006.60 1005.95 1005.31 1004.70
1020.13 1020.06 1019.98 1019.87 1019.73 1019.56 1019.38 1019.16 1018.94 1018.69 1018.44 1018.19 1017.92 1017.65 1017.36 1017.05 1016.71 1016.33 1015.90 1015.42 1014.88 1014.29 1013.65 1012.98 1012.27 1011.54 1010.80 1010.07 1009.33 1008.61 1007.89 1007.19 1006.49 1005.80 1005.13 1004.46 1003.82 1003.20
1019.86 1019.78 1019.67 1019.54 1019.37 1019.17 1018.94 1018.68 1018.40 1018.12 1017.82 1017.53 1017.23 1016.93 1016.61 1016.28 1015.93 1015.53 1015.08 1014.59 1014.03 1013.41 1012.74 1012.03 1011.27 1010.49 1009.70 1008.90 1008.11 1007.32 1006.56 1005.81 1005.08 1004.38 1003.69 1003.03 1002.40 1001.81
Thickness
5569 5565 5563 5562 5561 5559 5558 5556 5550 5540 5537 5535 5534 5533 5531 5526 5521 5516 5513 5510 5507 5504 5503 5501 5500 5497 5496 5495 5495 5494 5493 5492 5492 5492 5492 5492 5492 5492
5552 5549 5547 5544 5543 5543 5543 5542 5542 5539 5529 5523 5519 5517 5515 5511 5507 5503 5500 5498 5495 5493 5491 5489 5487 5485 5483 5482 5481 5481 5480 5478 5477 5477 5477 5477 5477 5476
5531 5530 5527 5525 5525 5524 5524 5525 5525 5524 5518 5508 5505 5502 5499 5496 5493 5489 5487 5485 5482 5480 5478 5476 5475 5473 5471 5469 5467 5466 5465 5463 5462 5461 5461 5460 5459 5459
5510 5508 5506 5505 5505 5506 5507 5508 5508 5508 5506 5498 5493 5488 5484 5482 5479 5476 5473 5471 5468 5466 5464 5463 5461 5459 5457 5455 5453 5452 5450 5448 5446 5445 5443 5442 5440 5439
5492 5490 5488 5488 5487 5489 5490 5491 5491 5492 5493 5490 5483 5478 5472 5469 5466 5462 5460 5457 5454 5451 5450 5449 5447 5445 5442 5440 5438 5437 5435 5432 5430 5427 5425 5423 5421 5419
5475 5473 5472 5472 5473 5474 5475 5475 5476 5477 5476 5475 5471 5465 5461 5457 5453 5449 5447 5443 5439 5437 5435 5433 5431 5428 5426 5424 5422 5420 5418 5416 5413 5410 5407 5404 5402 5399
5458 5458 5457 5458 5459 5461 5461 5461 5462 5462 5461 5459 5457 5453 5450 5446 5442 5438 5433 5428 5425 5423 5420 5417 5414 5411 5408 5406 5403 5402 5400 5398 5395 5392 5389 5386 5383 5380
5446 5445 5444 5445 5448 5449 5449 5450 5450 5449 5448 5446 5444 5441 5437 5434 5430 5425 5418 5412 5407 5407 5404 5400 5396 5394 5391 5388 5386 5384 5383 5380 5378 5374 5371 5368 5365 5363
5437 5435 5435 5435 5435 5436 5438 5438 5438 5438 5437 5434 5431 5427 5424 5420 5415 5409 5403 5397 5392 5389 5386 5385 5381 5378 5375 5371 5369 5367 5365 5363 5360 5358 5355 5353 5351 5349
5429 5428 5427 5426 5427 5427 5428 5428 5427 5427 5425 5423 5419 5415 5411 5407 5402 5396 5389 5383 5378 5374 5371 5368 5367 5364 5360 5356 5353 5351 5349 5347 5346 5344 5342 5341 5339 5339
5425 5423 5422 5421 5422 5422 5421 5419 5418 5417 5416 5413 5409 5404 5400 5395 5390 5383 5374 5367 5360 5358 5355 5351 5350 5349 5346 5343 5340 5337 5335 5334 5333 5332 5331 5331 5330 5330
5421 5419 5418 5417 5416 5416 5413 5411 5409 5407 5404 5400 5396 5392 5387 5382 5377 5370 5360 5349 5341 5338 5338 5334 5331 5329 5330 5330 5328 5325 5324 5323 5323 5322 5322 5322 5322 5322
5417 5414 5413 5412 5410 5408 5406 5402 5400 5397 5392 5387 5383 5378 5373 5368 5362 5355 5347 5337 5328 5323 5323 5319 5314 5312 5312 5318 5321 5319 5316 5316 5315 5315 5314 5313 5312 5312
5412 5409 5407 5405 5403 5400 5396 5394 5390 5386 5380 5374 5369 5364 5357 5351 5345 5339 5332 5325 5319 5314 5312 5307 5305 5302 5302 5305 5309 5313 5311 5308 5308 5309 5309 5307 5306 5305
5406 5404 5401 5398 5395 5390 5387 5384 5379 5372 5367 5361 5355 5348 5342 5336 5330 5324 5319 5315 5310 5307 5304 5301 5298 5296 5294 5295 5299 5302 5303 5305 5303 5303 5303 5301 5300 5299
5399 5396 5394 5391 5387 5383 5379 5373 5368 5361 5355 5348 5341 5334 5329 5322 5317 5312 5308 5306 5303 5302 5298 5295 5293 5290 5290 5290 5291 5294 5293 5293 5299 5296 5296 5298 5297 5296
5393 5388 5385 5381 5377 5372 5367 5362 5356 5350 5342 5335 5328 5321 5316 5310 5306 5302 5299 5296 5295 5295 5293 5289 5287 5286 5285 5284 5287 5289 5290 5291 5291 5291 5291 5295 5297 5294
5385 5379 5375 5370 5366 5361 5355 5349 5343 5336 5329 5322 5315 5308 5303 5299 5296 5293 5290 5288 5287 5287 5286 5284 5281 5281 5283 5285 5284 5285 5286 5286 5287 5286 5285 5290 5298 5296
5375 5369 5364 5359 5354 5349 5343 5336 5330 5324 5317 5309 5303 5297 5293 5290 5286 5284 5281 5280 5280 5280 5279 5277 5274 5272 5276 5284 5289 5284 5281 5283 5283 5284 5284 5285 5292 5296
5367 5361 5354 5350 5344 5338 5332 5325 5319 5312 5306 5299 5293 5288 5284 5280 5277 5275 5272 5271 5271 5272 5273 5271 5268 5266 5267 5274 5281 5284 5277 5275 5277 5280 5283 5285 5289 5293
5358 5352 5346 5341 5335 5328 5322 5315 5308 5302 5296 5289 5284 5279 5275 5271 5269 5267 5265 5264 5264 5265 5266 5268 5266 5263 5262 5264 5273 5285 5283 5276 5274 5275 5279 5282 5288 5292
5350 5344 5338 5332 5326 5319 5312 5305 5298 5292 5286 5281 5276 5272 5268 5265 5262 5260 5259 5257 5257 5257 5259 5262 5261 5258 5257 5259 5267 5277 5283 5282 5278 5276 5277 5277 5279 5289
5342 5336 5330 5324 5317 5310 5303 5296 5290 5284 5278 5273 5269 5265 5261 5258 5256 5254 5252 5251 5251 5251 5253 5256 5257 5257 5257 5259 5263 5270 5276 5279 5281 5283 5284 5281 5280 5286